When you browse on this site, cookies collect data to enhance your experience and personalize the content and advertising you see.
Visit our Privacy Policy to learn more. By continuing to use the site, you agree to this use of cookies and data.
  • Em Portugal
  • Lista de países
  • Para 7 dias
  • Temperatura da água
  • Mapas de satélite
  • Mapa do tempo
  • Widgets de tempo
  • user-avatar
    Iniciar Sessão

    Previsão horária em Una

    Hoje, 20 Junho, Quinta-feira

    Tempo Temperatura Precipitação Vento Pressão Humidade
    00:00 +10°C° 0 mm 1 m/s 582 mmHg 87%
    01:00 +9°C° 0 mm 1 m/s 582 mmHg 88%
    02:00 +9°C° 0 mm 1 m/s 582 mmHg 88%
    03:00 +9°C° 0 mm 1 m/s 581 mmHg 88%
    04:00 +10°C° 0 mm 1 m/s 582 mmHg 86%
    05:00 +12°C° 0 mm 1 m/s 583 mmHg 84%
    06:00 +13°C° 0 mm 1 m/s 584 mmHg 82%
    07:00 +14°C° 0.2 mm 1 m/s 584 mmHg 78%
    08:00 +15°C° 0.2 mm 2 m/s 585 mmHg 75%
    09:00 +17°C° 0 mm 2 m/s 585 mmHg 71%
    10:00 +17°C° 1.4 mm 2 m/s 585 mmHg 72%
    11:00 +17°C° 1.4 mm 2 m/s 585 mmHg 73%
    12:00 +17°C° 1.4 mm 2 m/s 585 mmHg 75%
    13:00 +17°C° 1.5 mm 2 m/s 585 mmHg 74%
    14:00 +17°C° 1.5 mm 2 m/s 584 mmHg 74%
    15:00 +17°C° 0 mm 2 m/s 584 mmHg 73%
    16:00 +16°C° 0.6 mm 2 m/s 584 mmHg 74%
    17:00 +16°C° 0.6 mm 2 m/s 584 mmHg 75%
    18:00 +15°C° 0.6 mm 2 m/s 584 mmHg 76%
    19:00 +13°C° 0.2 mm 1 m/s 583 mmHg 79%
    20:00 +12°C° 0.2 mm 1 m/s 583 mmHg 82%
    21:00 +9°C° 0.2 mm 0 m/s 582 mmHg 85%
    22:00 +9°C° 0 mm 0 m/s 582 mmHg 85%
    23:00 +10°C° 0 mm 1 m/s 582 mmHg 85%

    Amanhã, 21 Junho, Sexta-feira

    Tempo Temperatura Precipitação Vento Pressão Humidade
    00:00 +10°C° 0 mm 1 m/s 582 mmHg 85%
    01:00 +10°C° 0 mm 1 m/s 582 mmHg 85%
    02:00 +10°C° 0 mm 1 m/s 581 mmHg 85%
    03:00 +9°C° 0 mm 1 m/s 581 mmHg 85%
    04:00 +10°C° 0 mm 1 m/s 582 mmHg 83%
    05:00 +11°C° 0 mm 1 m/s 583 mmHg 82%
    06:00 +12°C° 0 mm 1 m/s 583 mmHg 81%
    07:00 +14°C° 0.2 mm 1 m/s 584 mmHg 76%
    08:00 +15°C° 0.2 mm 2 m/s 585 mmHg 71%
    09:00 +16°C° 0.2 mm 2 m/s 585 mmHg 66%
    10:00 +16°C° 0.6 mm 2 m/s 585 mmHg 67%
    11:00 +16°C° 0.6 mm 2 m/s 585 mmHg 68%
    12:00 +16°C° 0.6 mm 2 m/s 585 mmHg 69%
    13:00 +16°C° 0.9 mm 2 m/s 585 mmHg 70%
    14:00 +15°C° 0.9 mm 2 m/s 585 mmHg 72%
    15:00 +15°C° 0.9 mm 2 m/s 585 mmHg 73%
    16:00 +15°C° 0.3 mm 2 m/s 585 mmHg 76%
    17:00 +14°C° 0.3 mm 2 m/s 584 mmHg 78%
    18:00 +14°C° 0.3 mm 2 m/s 584 mmHg 81%
    19:00 +12°C° 0 mm 1 m/s 584 mmHg 84%
    20:00 +11°C° 0 mm 1 m/s 583 mmHg 87%
    21:00 +9°C° 0 mm 1 m/s 583 mmHg 90%
    22:00 +9°C° 0 mm 1 m/s 583 mmHg 90%
    23:00 +9°C° 0 mm 1 m/s 583 mmHg 89%

    Depois de amanhã, 22 Junho, Sábado

    Tempo Temperatura Precipitação Vento Pressão Humidade
    00:00 +9°C° 0 mm 1 m/s 583 mmHg 89%
    01:00 +9°C° 0 mm 1 m/s 583 mmHg 86%
    02:00 +8°C° 0 mm 1 m/s 583 mmHg 84%
    03:00 +8°C° 0 mm 1 m/s 582 mmHg 82%
    04:00 +10°C° 0 mm 1 m/s 583 mmHg 79%
    05:00 +11°C° 0 mm 1 m/s 584 mmHg 77%
    06:00 +12°C° 0 mm 1 m/s 585 mmHg 74%
    07:00 +14°C° 0 mm 1 m/s 586 mmHg 70%
    08:00 +15°C° 0 mm 1 m/s 587 mmHg 66%
    09:00 +18°C° 0 mm 1 m/s 588 mmHg 62%
    10:00 +17°C° 1 mm 2 m/s 588 mmHg 65%
    11:00 +18°C° 1 mm 2 m/s 588 mmHg 67%
    12:00 +18°C° 1 mm 2 m/s 588 mmHg 70%
    13:00 +18°C° 1.7 mm 2 m/s 587 mmHg 71%
    14:00 +18°C° 1.7 mm 2 m/s 587 mmHg 72%
    15:00 +18°C° 1.7 mm 2 m/s 587 mmHg 73%
    16:00 +17°C° 1.2 mm 2 m/s 587 mmHg 75%
    17:00 +17°C° 1.2 mm 2 m/s 586 mmHg 77%
    18:00 +16°C° 1.2 mm 1 m/s 586 mmHg 79%
    19:00 +15°C° 0.2 mm 1 m/s 586 mmHg 81%
    20:00 +13°C° 0.2 mm 1 m/s 585 mmHg 83%
    21:00 +12°C° 0.2 mm 1 m/s 585 mmHg 85%
    22:00 +11°C° 0 mm 1 m/s 584 mmHg 85%
    23:00 +11°C° 0 mm 1 m/s 584 mmHg 84%

    23 Junho, Domingo

    Tempo Temperatura Precipitação Vento Pressão Humidade
    00:00 +11°C° 0 mm 1 m/s 584 mmHg 84%
    01:00 +10°C° 0 mm 2 m/s 584 mmHg 83%
    02:00 +10°C° 0 mm 2 m/s 584 mmHg 83%
    03:00 +10°C° 0 mm 2 m/s 584 mmHg 82%
    04:00 +12°C° 0 mm 1 m/s 585 mmHg 79%
    05:00 +13°C° 0 mm 1 m/s 586 mmHg 76%
    06:00 +15°C° 0 mm 1 m/s 587 mmHg 73%
    07:00 +16°C° 0 mm 1 m/s 587 mmHg 67%
    08:00 +19°C° 0 mm 1 m/s 588 mmHg 61%
    09:00 +20°C° 0 mm 1 m/s 589 mmHg 55%
    10:00 +20°C° 0.2 mm 2 m/s 589 mmHg 56%
    11:00 +20°C° 0.2 mm 2 m/s 589 mmHg 56%
    12:00 +21°C° 0.2 mm 3 m/s 589 mmHg 57%
    13:00 +21°C° 0.3 mm 3 m/s 589 mmHg 57%
    14:00 +21°C° 0.3 mm 2 m/s 589 mmHg 57%
    15:00 +21°C° 0.3 mm 2 m/s 589 mmHg 56%
    16:00 +20°C° 0.1 mm 2 m/s 588 mmHg 60%
    17:00 +20°C° 0.1 mm 2 m/s 588 mmHg 64%
    18:00 +20°C° 0.1 mm 1 m/s 587 mmHg 68%
    19:00 +18°C° 0 mm 1 m/s 587 mmHg 71%
    20:00 +15°C° 0 mm 1 m/s 586 mmHg 74%
    21:00 +13°C° 0 mm 1 m/s 585 mmHg 76%
    22:00 +13°C° 0 mm 1 m/s 585 mmHg 76%
    23:00 +13°C° 0 mm 2 m/s 585 mmHg 75%

    24 Junho, Segunda-feira

    Tempo Temperatura Precipitação Vento Pressão Humidade
    00:00 +12°C° 0 mm 2 m/s 585 mmHg 75%
    01:00 +12°C° 0 mm 2 m/s 585 mmHg 73%
    02:00 +12°C° 0 mm 2 m/s 585 mmHg 72%
    03:00 +12°C° 0 mm 1 m/s 584 mmHg 70%
    04:00 +13°C° 0 mm 1 m/s 585 mmHg 69%
    05:00 +15°C° 0 mm 1 m/s 586 mmHg 67%
    06:00 +16°C° 0 mm 1 m/s 587 mmHg 66%
    07:00 +19°C° 0 mm 1 m/s 588 mmHg 61%
    08:00 +21°C° 0 mm 1 m/s 588 mmHg 56%
    09:00 +22°C° 0 mm 1 m/s 589 mmHg 51%
    10:00 +23°C° 0.3 mm 2 m/s 589 mmHg 52%
    11:00 +23°C° 0.3 mm 2 m/s 589 mmHg 53%
    12:00 +24°C° 0.3 mm 2 m/s 589 mmHg 54%
    13:00 +23°C° 0.8 mm 2 m/s 589 mmHg 55%
    14:00 +23°C° 0.8 mm 2 m/s 589 mmHg 56%
    15:00 +23°C° 0.8 mm 2 m/s 588 mmHg 57%
    16:00 +21°C° 0.5 mm 2 m/s 588 mmHg 61%
    17:00 +20°C° 0.5 mm 2 m/s 588 mmHg 64%
    18:00 +21°C° 0.5 mm 1 m/s 587 mmHg 68%
    19:00 +19°C° 0.1 mm 1 m/s 587 mmHg 71%
    20:00 +16°C° 0.1 mm 1 m/s 586 mmHg 74%
    21:00 +14°C° 0.1 mm 1 m/s 585 mmHg 77%
    22:00 +14°C° 0.2 mm 1 m/s 585 mmHg 76%
    23:00 +13°C° 0.2 mm 1 m/s 585 mmHg 76%

    25 Junho, Terça-feira

    Tempo Temperatura Precipitação Vento Pressão Humidade
    00:00 +13°C° 0.2 mm 1 m/s 585 mmHg 75%
    01:00 +13°C° 0.2 mm 1 m/s 585 mmHg 74%
    02:00 +13°C° 0.2 mm 1 m/s 585 mmHg 73%
    03:00 +13°C° 0.2 mm 1 m/s 585 mmHg 72%
    04:00 +14°C° 0 mm 1 m/s 586 mmHg 70%
    05:00 +15°C° 0 mm 1 m/s 586 mmHg 68%
    06:00 +16°C° 0 mm 1 m/s 587 mmHg 66%
    07:00 +19°C° 0 mm 1 m/s 588 mmHg 60%
    08:00 +20°C° 0 mm 1 m/s 588 mmHg 55%
    09:00 +20°C° 0 mm 2 m/s 589 mmHg 49%
    10:00 +21°C° 0.3 mm 2 m/s 589 mmHg 51%
    11:00 +21°C° 0.3 mm 2 m/s 589 mmHg 53%
    12:00 +21°C° 0.3 mm 3 m/s 589 mmHg 55%
    13:00 +21°C° 0.8 mm 2 m/s 589 mmHg 55%
    14:00 +21°C° 0.8 mm 2 m/s 589 mmHg 56%
    15:00 +21°C° 0.8 mm 2 m/s 589 mmHg 56%
    16:00 +20°C° 0.5 mm 2 m/s 588 mmHg 60%
    17:00 +19°C° 0.5 mm 2 m/s 588 mmHg 64%
    18:00 +20°C° 0.5 mm 1 m/s 588 mmHg 68%
    19:00 +18°C° 0.1 mm 1 m/s 587 mmHg 71%
    20:00 +15°C° 0.1 mm 1 m/s 586 mmHg 74%
    21:00 +13°C° 0.1 mm 1 m/s 585 mmHg 77%
    22:00 +12°C° 0 mm 1 m/s 585 mmHg 78%
    23:00 +12°C° 0 mm 1 m/s 585 mmHg 79%
    Mostrar mais